• Processing (Info)

  • MPEC 2004-E43 : 2004 EW

    The following Minor Planet Electronic Circular may be linked-to from your own Web pages, but must not otherwise be redistributed electronically.

    A form allowing access to any MPEC is at the bottom of this page.


    Read MPEC 2004-E42 Read MPEC 2004-E44


    M.P.E.C. 2004-E43                                Issued 2004 Mar. 14, 21:01 UT
    
         The Minor Planet Electronic Circulars contain information on unusual
             minor planets and routine data on comets.  They are published
       on behalf of Commission 20 of the International Astronomical Union by the
              Minor Planet Center, Smithsonian Astrophysical Observatory,
                              Cambridge, MA 02138, U.S.A.
    
             Supported in part by the Steven and Michele Kirsch Foundation
                 Prepared using the Tamkin Foundation Computer Network
    
                                  MPC@CFA.HARVARD.EDU
              URL http://cfa-www.harvard.edu/iau/mpc.html  ISSN 1523-6714
    
                                        2004 EW
    
    Observations:
         K04E00W* C2004 03 13.13813 08 33 32.31 +16 29 37.9          18.5 V EE043703
         K04E00W  C2004 03 13.14835 08 33 33.50 +16 29 18.4          18.5 V EE043703
         K04E00W  C2004 03 13.15855 08 33 34.71 +16 28 56.4          17.9 V EE043703
         K04E00W  C2004 03 13.17485 08 33 36.51 +16 28 26.0          19.2 V EE043703
         K04E00W 5C2004 03 13.34398 08 33 56.31 +16 22 55.3          18.5 R EE043673
         K04E00W 5C2004 03 13.34525 08 33 56.47 +16 22 52.8                 EE043673
         K04E00W 5C2004 03 13.35139 08 33 57.21 +16 22 40.4                 EE043673
         K04E00W 5C2004 03 13.35579 08 33 57.73 +16 22 32.1                 EE043673
         K04E00W  C2004 03 13.36526 08 33 58.59 +16 22 13.5          18.4 V EE043703
         K04E00W  C2004 03 13.36911 08 33 59.05 +16 22 05.6          18.3 V EE043703
         K04E00W  C2004 03 13.37300 08 33 59.52 +16 21 57.5          18.1 V EE043703
         K04E00W  C2004 03 13.37657 08 34 00.05 +16 21 50.5          18.1 V EE043703
         K04E00W  C2004 03 13.56618 08 34 27.12 +16 15 57.6          18.4 V EE043900
         K04E00W  C2004 03 13.56979 08 34 27.53 +16 15 47.0          18.4 V EE043900
         K04E00W  C2004 03 13.94963 08 35 16.43 +16 03 47.0          19.2 V EE043A50
         K04E00W  C2004 03 13.95314 08 35 17.13 +16 03 38.7          19.1 V EE043A50
         K04E00W  C2004 03 13.95666 08 35 17.34 +16 03 32.3          18.9 V EE043A50
         K04E00W  C2004 03 13.96229 08 35 18.22 +16 03 22.6          18.5 V EE043A50
         K04E00W  C2004 03 14.06667 08 35 34.32 +16 00 21.1          18.5 R EE043932
         K04E00W  C2004 03 14.06876 08 35 34.56 +16 00 16.9          18.1 R EE043932
         K04E00W  C2004 03 14.07431 08 35 35.13 +16 00 06.3          18.7 R EE043932
         K04E00W  C2004 03 14.20591 08 35 52.07 +15 56 14.0          18.4 R EE043G72
         K04E00W  C2004 03 14.20961 08 35 52.50 +15 56 06.7          18.2 R EE043G72
         K04E00W  C2004 03 14.21344 08 35 52.85 +15 56 01.6          18.7 R EE043G72
         K04E00W  C2004 03 14.21714 08 35 53.24 +15 55 53.2          18.4 R EE043G72
         K04E00W  C2004 03 14.22096 08 35 53.54 +15 55 48.6          18.5 R EE043G72
         K04E00W  C2004 03 14.24891 08 35 56.63 +15 54 57.8          18.5 R EE043G72
         K04E00W  C2004 03 14.25260 08 35 57.11 +15 54 49.5          19.0 R EE043G72
         K04E00W  C2004 03 14.25644 08 35 57.63 +15 54 40.3          18.4 R EE043G72
         K04E00W  C2004 03 14.26012 08 35 57.93 +15 54 35.5          17.5 R EE043G72
         K04E00W  C2004 03 14.26478 08 35 58.48 +15 54 27.3          18.2 R EE043G72
         K04E00W  C2004 03 14.36182 08 36 08.82 +15 51 26.1          17.9 R EE043H06
         K04E00W  C2004 03 14.36251 08 36 08.88 +15 51 25.1          17.9 R EE043H06
         K04E00W  C2004 03 14.36308 08 36 09.04 +15 51 24.2          17.8 R EE043H06
         K04E00W 5C2004 03 14.38148 08 36 11.64 +15 50 51.4          18.5 R EE043673
         K04E00W 5C2004 03 14.38356 08 36 11.91 +15 50 47.3                 EE043673
         K04E00W 5C2004 03 14.38553 08 36 12.11 +15 50 44.0                 EE043673
         K04E00W 5C2004 03 14.38750 08 36 12.37 +15 50 40.1                 EE043673
         K04E00W  C2004 03 14.78100 08 37 06.25 +15 38 57.8                 EE043246
         K04E00W  C2004 03 14.78211 08 37 06.37 +15 38 55.9                 EE043246
         K04E00W  C2004 03 14.78389 08 37 06.55 +15 38 52.9                 EE043246
         K04E00W  C2004 03 14.78487 08 37 06.66 +15 38 51.3                 EE043246
         K04E00W  C2004 03 14.78576 08 37 06.77 +15 38 49.8                 EE043246
         K04E00W  C2004 03 14.78676 08 37 06.88 +15 38 48.0                 EE043246
         K04E00W  C2004 03 14.85676 08 37 15.49 +15 36 52.6          18.4 R EE043J87
         K04E00W  C2004 03 14.85822 08 37 15.64 +15 36 50.5          18.4 R EE043J87
         K04E00W  C2004 03 14.85969 08 37 15.83 +15 36 48.6          18.6 R EE043J87
         K04E00W  C2004 03 14.86115 08 37 16.01 +15 36 46.0          18.2 R EE043J87
         K04E00W  C2004 03 14.86260 08 37 16.13 +15 36 42.8          18.4 R EE043J87
    
    Observer details:
    246 Klet Observatory-KLENOT.  Observers J. Ticha, M. Tichy.  1.06-m KLENOT
        Telescope + CCD.
    673 Table Mountain Observatory, Wrightwood.  Observer J. Young.  0.6-m
        reflector + CCD.
    703 Catalina Sky Survey.  Observers S. Larson, E. Beshore, E. Christensen,
        R. Hill, S. Kolar, D. McLean.  0.68-m f/1.8 Schmidt + CCD.
    900 Moriyama.  Observer Y. Ikari.  0.25-m f/6.3 Schmidt-Cassegrain + CCD.
    932 John J. McCarthy Obs., New Milford.  Observers W. Cloutier, M. Robson.
        Measurer A. Engine.  0.4-m f/6.5 Schmidt-Cassegrain + CCD.
    A50 Andrushivka Astronomical Observatory.  Observers Y. Ivashchenko,
        O. Gerashchenko, V. Lokot, O. Naumov.  0.6-m reflector + CCD.
    G72 University Hills.  Observer J. Foster.  0.33-m f/6.3 reflector + CCD.
    H06 New Mexico Skies Observatory.  Observer R. Hutsebaut.  0.30-m  f/11.9
        telescope + CCD.
    J87 La Canada.  Observer J. Lacruz.  0.30-m f/3.3 Schmidt-Cassegrain + CCD.
    
    Orbital elements:
    2004 EW
    Epoch 2004 Feb. 25.0 TT = JDT 2453060.5                 MPC
    M  82.43453              (2000.0)            P               Q
    n   1.00801608     Peri.   55.03529     +0.77966966     -0.62578115
    a   0.9851244      Node   343.66579     +0.54506076     +0.69601911
    e   0.2830356      Incl.    4.62010     +0.30825962     +0.35207294
    P   0.98           H   20.9           G   0.15
    From 43 observations 2004 Mar. 13-14.
    
    Ephemeris:
    2004 EW                  a,e,i = 0.99, 0.28, 5                   q = 0.7063
    Date    TT    R. A. (2000) Decl.     Delta      r     Elong.  Phase     V
    2004 03 06    08 13.78   +21 33.5    0.108    1.071   135.1    40.8    17.8
    2004 03 16    08 39.60   +15 05.3    0.163    1.112   132.6    41.2    18.8
    2004 03 26    08 57.71   +11 34.3    0.224    1.148   127.7    43.4    19.6
    2004 04 05    09 14.21   +09 11.0    0.288    1.180   122.4    45.7    20.3
    2004 04 15    09 30.60   +07 16.7    0.355    1.207   117.1    47.8    20.9
    2004 04 25    09 47.49   +05 34.0    0.423    1.229   111.9    49.4    21.3
    2004 05 05    10 05.05   +03 53.8    0.493    1.245   107.0    50.8    21.7
    
    Kyle E. Smalley              (C) Copyright 2004 MPC           M.P.E.C. 2004-E43
    

    Read MPEC 2004-E42 Read MPEC 2004-E44


    MPEC number:

    Enter an MPEC number in one of the following forms:

    • 1997-B01 (the full form)
    • J97B01 (the packed version of the full form)
    • B01 (the abbreviated form)